| time (UTC) | temp F | wind direction | speed MPH | gust MPH | rain 1hr in | rain 24hr in | rain mn in | humidity % | barometer mb |
| 20260508202524 | 70 | 8 | 6.0 | 12.0 | 0.00 | 0.00 | 0.00 | 33 | 1009.4 |
| 20260508202056 | 69 | 45 | 6.0 | 11.0 | 0.00 | 0.00 | 0.00 | 34 | 1009.6 |
| 20260508201531 | 70 | 46 | 7.0 | 14.0 | 0.00 | 0.00 | 0.00 | 32 | 1009.6 |
| 20260508201045 | 70 | 23 | 9.0 | 14.0 | 0.00 | 0.00 | 0.00 | 32 | 1009.7 |
| 20260508200515 | 70 | 246 | 2.0 | 11.0 | 0.00 | 0.00 | 0.00 | 31 | 1009.7 |
| 20260508200055 | 70 | 23 | 5.0 | 11.0 | 0.00 | 0.00 | 0.00 | 32 | 1010.0 |
| 20260508195518 | 70 | 23 | 4.0 | 10.0 | 0.00 | 0.00 | 0.00 | 35 | 1009.9 |
| 20260508195049 | 69 | 72 | 5.0 | 10.0 | 0.00 | 0.00 | 0.00 | 33 | 1009.9 |
| 20260508194505 | 69 | 3 | 3.0 | 15.0 | 0.00 | 0.00 | 0.00 | 36 | 1010.0 |
| 20260508194030 | 69 | 228 | 7.0 | 15.0 | 0.00 | 0.00 | 0.00 | 35 | 1010.2 |
| 20260508193507 | 69 | 65 | 7.0 | 14.0 | 0.00 | 0.00 | 0.00 | 34 | 1010.2 |
| 20260508193036 | 69 | 94 | 6.0 | 14.0 | 0.00 | 0.00 | 0.00 | 35 | 1010.2 |
| 20260508192507 | 69 | 29 | 5.0 | 12.0 | 0.00 | 0.00 | 0.00 | 37 | 1010.3 |
| 20260508192041 | 69 | 5 | 5.0 | 10.0 | 0.00 | 0.00 | 0.00 | 32 | 1010.6 |
| 20260508191511 | 68 | 311 | 2.0 | 12.0 | 0.00 | 0.00 | 0.00 | 37 | 1010.6 |
| 20260508191042 | 68 | 298 | 4.0 | 12.0 | 0.00 | 0.00 | 0.00 | 33 | 1010.8 |
| 20260508190511 | 68 | 313 | 5.0 | 12.0 | 0.00 | 0.00 | 0.00 | 36 | 1010.9 |
| 20260508190049 | 68 | 42 | 5.0 | 11.0 | 0.00 | 0.00 | 0.00 | 37 | 1011.0 |
| 20260508185601 | 68 | 335 | 5.0 | 11.0 | 0.00 | 0.00 | 0.00 | 34 | 1011.0 |
| 20260508185503 | 68 | 18 | 4.0 | 14.0 | 0.00 | 0.00 | 0.00 | 35 | 1010.9 |
| 20260508185035 | 67 | 315 | 5.0 | 16.0 | 0.00 | 0.00 | 0.00 | 37 | 1011.1 |
| 20260508184505 | 67 | 27 | 8.0 | 16.0 | 0.00 | 0.00 | 0.00 | 36 | 1011.2 |
| 20260508184036 | 67 | 42 | 4.0 | 14.0 | 0.00 | 0.00 | 0.00 | 35 | 1011.3 |
| 20260508183509 | 67 | 56 | 6.0 | 21.0 | 0.00 | 0.00 | 0.00 | 33 | 1011.4 |
| 20260508183047 | 68 | 323 | 7.0 | 21.0 | 0.00 | 0.00 | 0.00 | 36 | 1011.3 |
| 20260508182517 | 67 | 41 | 7.0 | 13.0 | 0.00 | 0.00 | 0.00 | 37 | 1011.3 |
| 20260508182051 | 67 | 61 | 4.0 | 13.0 | 0.00 | 0.00 | 0.00 | 39 | 1011.3 |
| 20260508181520 | 67 | 286 | 5.0 | 14.0 | 0.00 | 0.00 | 0.00 | 37 | 1011.4 |
| 20260508181052 | 67 | 356 | 8.0 | 17.0 | 0.00 | 0.00 | 0.00 | 36 | 1011.4 |
| 20260508180511 | 67 | 13 | 6.0 | 24.0 | 0.00 | 0.00 | 0.00 | 36 | 1011.7 |
| 20260508180039 | 67 | 8 | 6.0 | 24.0 | 0.00 | 0.00 | 0.00 | 36 | 1011.6 |
| 20260508175511 | 67 | 9 | 5.0 | 14.0 | 0.00 | 0.00 | 0.00 | 37 | 1011.5 |
| 20260508175046 | 67 | 69 | 8.0 | 14.0 | 0.00 | 0.00 | 0.00 | 36 | 1011.7 |
| 20260508174558 | 67 | 356 | 10.0 | 14.0 | 0.00 | 0.00 | 0.00 | 35 | 1011.9 |
| 20260508174500 | 67 | 26 | 9.0 | 14.0 | 0.00 | 0.00 | 0.00 | 36 | 1012.0 |
| 20260508174034 | 66 | 63 | 3.0 | 14.0 | 0.00 | 0.00 | 0.00 | 39 | 1011.9 |
| 20260508173505 | 65 | 10 | 5.0 | 15.0 | 0.00 | 0.00 | 0.00 | 41 | 1011.7 |
| 20260508173036 | 66 | 34 | 7.0 | 16.0 | 0.00 | 0.00 | 0.00 | 37 | 1011.7 |
| 20260508172504 | 67 | 35 | 7.0 | 16.0 | 0.00 | 0.00 | 0.00 | 37 | 1011.8 |
| 20260508172014 | 66 | 360 | 6.0 | 14.0 | 0.00 | 0.00 | 0.00 | 37 | 1011.7 |
| 20260508171555 | 66 | 120 | 4.0 | 14.0 | 0.00 | 0.00 | 0.00 | 36 | 1011.8 |
| 20260508171022 | 66 | 58 | 9.0 | 14.0 | 0.00 | 0.00 | 0.00 | 38 | 1012.2 |
| 20260508170552 | 66 | 34 | 9.0 | 15.0 | 0.00 | 0.00 | 0.00 | 38 | 1012.3 |
| 20260508170004 | 65 | 25 | 11.0 | 20.0 | 0.00 | 0.00 | 0.00 | 37 | 1012.2 |
| 20260508165536 | 65 | 29 | 13.0 | 20.0 | 0.00 | 0.00 | 0.00 | 38 | 1012.3 |
| 20260508165006 | 65 | 54 | 8.0 | 20.0 | 0.00 | 0.00 | 0.00 | 40 | 1012.5 |
| 20260508164540 | 65 | 346 | 8.0 | 20.0 | 0.00 | 0.00 | 0.00 | 38 | 1012.4 |
| 20260508164053 | 65 | 69 | 6.0 | 16.0 | 0.00 | 0.00 | 0.00 | 47 | 1012.5 |
| 20260508163524 | 65 | 89 | 9.0 | 16.0 | 0.00 | 0.00 | 0.00 | 39 | 1012.5 |
| 20260508163058 | 65 | 9 | 5.0 | 10.0 | 0.00 | 0.00 | 0.00 | 42 | 1012.5 |
| 20260508162526 | 64 | 280 | 5.0 | 14.0 | 0.00 | 0.00 | 0.00 | 42 | 1012.6 |
| 20260508162101 | 64 | 44 | 6.0 | 14.0 | 0.00 | 0.00 | 0.00 | 41 | 1012.7 |
| 20260508161520 | 64 | 50 | 5.0 | 15.0 | 0.00 | 0.00 | 0.00 | 43 | 1012.7 |
| 20260508161048 | 64 | 40 | 8.0 | 15.0 | 0.00 | 0.00 | 0.00 | 40 | 1012.8 |
| 20260508160522 | 63 | 71 | 10.0 | 19.0 | 0.00 | 0.00 | 0.00 | 45 | 1012.8 |
| 20260508160057 | 63 | 48 | 5.0 | 18.0 | 0.00 | 0.00 | 0.00 | 43 | 1012.8 |
| 20260508155538 | 63 | 40 | 9.0 | 18.0 | 0.00 | 0.00 | 0.00 | 43 | 1013.1 |
| 20260508155048 | 63 | 57 | 10.0 | 17.0 | 0.00 | 0.00 | 0.00 | 45 | 1013.0 |
| 20260508154522 | 63 | 40 | 8.0 | 17.0 | 0.00 | 0.00 | 0.00 | 43 | 1013.0 |
| 20260508154054 | 63 | 33 | 9.0 | 17.0 | 0.00 | 0.00 | 0.00 | 44 | 1013.0 |
| 20260508153532 | 63 | 21 | 12.0 | 17.0 | 0.00 | 0.00 | 0.00 | 44 | 1013.0 |
| 20260508153058 | 63 | 79 | 5.0 | 10.0 | 0.00 | 0.00 | 0.00 | 47 | 1013.3 |
| 20260508153002 | 63 | 46 | 5.0 | 14.0 | 0.00 | 0.00 | 0.00 | 47 | 1013.2 |
| 20260508152532 | 62 | 38 | 6.0 | 19.0 | 0.00 | 0.00 | 0.00 | 44 | 1013.2 |
| 20260508152058 | 62 | 13 | 9.0 | 19.0 | 0.00 | 0.00 | 0.00 | 43 | 1013.3 |
| 20260508151530 | 62 | 18 | 7.0 | 16.0 | 0.00 | 0.00 | 0.00 | 49 | 1013.3 |
| 20260508151100 | 62 | 27 | 9.0 | 16.0 | 0.00 | 0.00 | 0.00 | 43 | 1013.3 |
| 20260508151004 | 62 | 34 | 9.0 | 16.0 | 0.00 | 0.00 | 0.00 | 43 | 1013.4 |
| 20260508150535 | 62 | 43 | 7.0 | 13.0 | 0.00 | 0.00 | 0.00 | 48 | 1013.5 |
| 20260508150006 | 61 | 20 | 8.0 | 16.0 | 0.00 | 0.00 | 0.00 | 42 | 1013.8 |
| 20260508145534 | 61 | 31 | 7.0 | 17.0 | 0.00 | 0.00 | 0.00 | 42 | 1013.7 |
| 20260508145006 | 61 | 348 | 9.0 | 17.0 | 0.00 | 0.00 | 0.00 | 40 | 1013.7 |
| 20260508144539 | 61 | 32 | 7.0 | 15.0 | 0.00 | 0.00 | 0.00 | 43 | 1013.7 |
| 20260508144010 | 61 | 310 | 6.0 | 15.0 | 0.00 | 0.00 | 0.00 | 43 | 1013.7 |
| 20260508143544 | 61 | 36 | 9.0 | 13.0 | 0.00 | 0.00 | 0.00 | 42 | 1013.7 |
| 20260508143012 | 61 | 50 | 4.0 | 16.0 | 0.00 | 0.00 | 0.00 | 46 | 1013.8 |
| 20260508142544 | 60 | 19 | 4.0 | 16.0 | 0.00 | 0.00 | 0.00 | 44 | 1013.8 |
| 20260508142018 | 60 | 270 | 3.0 | 10.0 | 0.00 | 0.00 | 0.00 | 46 | 1013.8 |
| 20260508141552 | 60 | 313 | 5.0 | 10.0 | 0.00 | 0.00 | 0.00 | 46 | 1013.8 |
| 20260508141027 | 60 | 42 | 4.0 | 10.0 | 0.00 | 0.00 | 0.00 | 45 | 1013.8 |
| 20260508140553 | 60 | 324 | 2.0 | 12.0 | 0.00 | 0.00 | 0.00 | 49 | 1013.7 |
| 20260508140012 | 59 | 323 | 1.0 | 12.0 | 0.00 | 0.00 | 0.00 | 52 | 1013.8 |
| 20260508135548 | 58 | 319 | 2.0 | 12.0 | 0.00 | 0.00 | 0.00 | 49 | 1014.0 |
| 20260508135020 | 58 | 310 | 3.0 | 8.0 | 0.00 | 0.00 | 0.00 | 48 | 1014.0 |
| 20260508134546 | 58 | 1 | 1.0 | 9.0 | 0.00 | 0.00 | 0.00 | 50 | 1014.0 |
| 20260508134015 | 57 | 283 | 2.0 | 8.0 | 0.00 | 0.00 | 0.00 | 49 | 1014.0 |
| 20260508133546 | 57 | 47 | 2.0 | 8.0 | 0.00 | 0.00 | 0.00 | 52 | 1014.2 |
| 20260508133024 | 57 | 268 | 3.0 | 8.0 | 0.00 | 0.00 | 0.00 | 50 | 1014.3 |
| 20260508132547 | 56 | 327 | 2.0 | 7.0 | 0.00 | 0.00 | 0.00 | 53 | 1014.3 |
| 20260508132018 | 56 | 4 | 1.0 | 6.0 | 0.00 | 0.00 | 0.00 | 55 | 1014.3 |
| 20260508131559 | 55 | 315 | 1.0 | 6.0 | 0.00 | 0.00 | 0.00 | 54 | 1014.3 |
| 20260508131010 | 55 | 343 | 0.0 | 4.0 | 0.00 | 0.00 | 0.00 | 58 | 1014.3 |
| 20260508130538 | 55 | 281 | 0.0 | 4.0 | 0.00 | 0.00 | 0.00 | 59 | 1014.4 |
| 20260508130005 | 55 | 283 | 2.0 | 6.0 | 0.00 | 0.00 | 0.00 | 61 | 1014.3 |
| 20260508125540 | 54 | 283 | 2.0 | 7.0 | 0.00 | 0.00 | 0.00 | 62 | 1014.4 |
| 20260508125014 | 54 | 333 | 3.0 | 7.0 | 0.00 | 0.00 | 0.00 | 63 | 1014.5 |
| 20260508124549 | 53 | 310 | 1.0 | 5.0 | 0.00 | 0.00 | 0.00 | 65 | 1014.5 |
| 20260508124018 | 53 | 3 | 2.0 | 5.0 | 0.00 | 0.00 | 0.00 | 65 | 1014.5 |
| 20260508123554 | 52 | 284 | 1.0 | 4.0 | 0.00 | 0.00 | 0.00 | 67 | 1014.5 |
| 20260508123020 | 51 | 302 | 0.0 | 2.0 | 0.00 | 0.00 | 0.00 | 75 | 1014.5 |
| 20260508122555 | 50 | 339 | 0.0 | 3.0 | 0.00 | 0.00 | 0.00 | 78 | 1014.5 |
| 20260508122029 | 49 | 335 | 0.0 | 3.0 | 0.00 | 0.00 | 0.00 | 75 | 1014.5 |
| 20260508121556 | 49 | 38 | 0.0 | 3.0 | 0.00 | 0.00 | 0.00 | 77 | 1014.4 |
| 20260508121013 | 48 | 286 | 0.0 | 3.0 | 0.00 | 0.00 | 0.00 | 76 | 1014.4 |
| 20260508120543 | 47 | 335 | 0.0 | 3.0 | 0.00 | 0.00 | 0.00 | 78 | 1014.4 |
| 20260508120014 | 46 | 293 | 0.0 | 2.0 | 0.00 | 0.00 | 0.00 | 78 | 1014.3 |
| 20260508115546 | 45 | 294 | 0.0 | 2.0 | 0.00 | 0.00 | 0.00 | 81 | 1014.2 |
| 20260508115013 | 44 | 294 | 0.0 | 2.0 | 0.00 | 0.00 | 0.00 | 82 | 1014.3 |
| 20260508114527 | 43 | 317 | 0.0 | 0.0 | 0.00 | 0.00 | 0.00 | 86 | 1014.1 |
| 20260508114100 | 42 | 317 | 0.0 | 0.0 | 0.00 | 0.00 | 0.00 | 86 | 1014.2 |
| 20260508114003 | 42 | 317 | 0.0 | 0.0 | 0.00 | 0.00 | 0.00 | 86 | 1014.2 |
| 20260508113538 | 42 | 317 | 0.0 | 0.0 | 0.00 | 0.00 | 0.00 | 87 | 1014.2 |
| 20260508113009 | 41 | 317 | 0.0 | 0.0 | 0.00 | 0.00 | 0.00 | 87 | 1014.1 |
| 20260508112525 | 41 | 317 | 0.0 | 0.0 | 0.00 | 0.00 | 0.00 | 86 | 1014.0 |
| 20260508112003 | 40 | 317 | 0.0 | 0.0 | 0.00 | 0.00 | 0.00 | 85 | 1013.9 |
| 20260508111533 | 40 | 317 | 0.0 | 0.0 | 0.00 | 0.00 | 0.00 | 85 | 1013.9 |
| 20260508111005 | 39 | 317 | 0.0 | 0.0 | 0.00 | 0.00 | 0.00 | 86 | 1013.9 |
| 20260508110535 | 39 | 317 | 0.0 | 0.0 | 0.00 | 0.00 | 0.00 | 86 | 1013.9 |
| 20260508110012 | 39 | 317 | 0.0 | 0.0 | 0.00 | 0.00 | 0.00 | 86 | 1013.7 |
| 20260508105546 | 39 | 317 | 0.0 | 0.0 | 0.00 | 0.00 | 0.00 | 86 | 1013.6 |
| 20260508105010 | 38 | 317 | 0.0 | 0.0 | 0.00 | 0.00 | 0.00 | 85 | 1013.6 |
| 20260508104613 | 38 | 317 | 0.0 | 0.0 | 0.00 | 0.00 | 0.00 | 84 | 1013.5 |
| 20260508104009 | 39 | 317 | 0.0 | 0.0 | 0.00 | 0.00 | 0.00 | 84 | 1013.5 |
| 20260508103543 | 39 | 317 | 0.0 | 0.0 | 0.00 | 0.00 | 0.00 | 83 | 1013.4 |
| 20260508103020 | 39 | 317 | 0.0 | 0.0 | 0.00 | 0.00 | 0.00 | 84 | 1013.3 |
| 20260508102549 | 39 | 317 | 0.0 | 0.0 | 0.00 | 0.00 | 0.00 | 84 | 1013.3 |
| 20260508102021 | 40 | 317 | 0.0 | 0.0 | 0.00 | 0.00 | 0.00 | 84 | 1013.2 |
| 20260508101554 | 40 | 317 | 0.0 | 0.0 | 0.00 | 0.00 | 0.00 | 84 | 1013.2 |
| 20260508101031 | 40 | 317 | 0.0 | 0.0 | 0.00 | 0.00 | 0.00 | 81 | 1013.1 |
| 20260508100541 | 40 | 317 | 0.0 | 0.0 | 0.00 | 0.00 | 0.00 | 81 | 1013.1 |
| 20260508100014 | 40 | 284 | 0.0 | 1.0 | 0.00 | 0.00 | 0.00 | 82 | 1013.2 |
| 20260508095548 | 40 | 235 | 0.0 | 2.0 | 0.00 | 0.00 | 0.00 | 82 | 1013.1 |
| 20260508095023 | 40 | 235 | 1.0 | 2.0 | 0.00 | 0.00 | 0.00 | 82 | 1013.2 |
| 20260508094557 | 41 | 235 | 0.0 | 2.0 | 0.00 | 0.00 | 0.00 | 81 | 1013.0 |
| 20260508094010 | 41 | 235 | 1.0 | 2.0 | 0.00 | 0.00 | 0.00 | 81 | 1013.1 |
| 20260508093543 | 41 | 235 | 0.0 | 2.0 | 0.00 | 0.00 | 0.00 | 80 | 1012.9 |
| 20260508093014 | 42 | 235 | 0.0 | 2.0 | 0.00 | 0.00 | 0.00 | 78 | 1012.9 |
| 20260508092547 | 42 | 235 | 0.0 | 1.0 | 0.00 | 0.00 | 0.00 | 76 | 1012.8 |
| 20260508092014 | 42 | 235 | 0.0 | 3.0 | 0.00 | 0.00 | 0.00 | 75 | 1012.8 |
| 20260508091528 | 43 | 235 | 1.0 | 3.0 | 0.00 | 0.00 | 0.00 | 75 | 1012.8 |
| 20260508091005 | 43 | 231 | 2.0 | 3.0 | 0.00 | 0.00 | 0.00 | 74 | 1012.6 |
| 20260508090540 | 43 | 232 | 2.0 | 3.0 | 0.00 | 0.00 | 0.00 | 73 | 1012.6 |
| 20260508090015 | 44 | 32 | 0.0 | 0.0 | 0.00 | 0.00 | 0.00 | 72 | 1012.5 |
| 20260508085544 | 44 | 32 | 0.0 | 0.0 | 0.00 | 0.00 | 0.00 | 73 | 1012.5 |
| 20260508085004 | 44 | 32 | 0.0 | 0.0 | 0.00 | 0.00 | 0.00 | 73 | 1012.5 |
| 20260508084537 | 44 | 32 | 0.0 | 0.0 | 0.00 | 0.00 | 0.00 | 74 | 1012.6 |
| 20260508084005 | 45 | 32 | 0.0 | 0.0 | 0.00 | 0.00 | 0.00 | 70 | 1012.6 |
| 20260508083536 | 45 | 32 | 0.0 | 0.0 | 0.00 | 0.00 | 0.00 | 70 | 1012.5 |
| 20260508083011 | 45 | 32 | 0.0 | 0.0 | 0.00 | 0.00 | 0.00 | 69 | 1012.5 |
| 20260508082544 | 45 | 32 | 0.0 | 0.0 | 0.00 | 0.00 | 0.00 | 68 | 1012.5 |
| 20260508082013 | 45 | 32 | 0.0 | 0.0 | 0.00 | 0.00 | 0.00 | 71 | 1012.5 |
| 20260508081553 | 45 | 32 | 0.0 | 0.0 | 0.00 | 0.00 | 0.00 | 67 | 1012.6 |
| 20260508081014 | 46 | 32 | 0.0 | 2.0 | 0.00 | 0.00 | 0.00 | 66 | 1012.6 |
| 20260508080545 | 46 | 32 | 0.0 | 3.0 | 0.00 | 0.00 | 0.00 | 66 | 1012.5 |
| 20260508080110 | 47 | 32 | 1.0 | 3.0 | 0.00 | 0.00 | 0.00 | 68 | 1012.4 |
| 20260508075525 | 47 | 32 | 2.0 | 4.0 | 0.00 | 0.00 | 0.00 | 66 | 1012.4 |
| 20260508075056 | 47 | 50 | 2.0 | 4.0 | 0.00 | 0.00 | 0.00 | 64 | 1012.2 |
| 20260508074532 | 48 | 44 | 1.0 | 3.0 | 0.00 | 0.00 | 0.00 | 64 | 1012.3 |
| 20260508074059 | 48 | 44 | 1.0 | 3.0 | 0.00 | 0.00 | 0.00 | 62 | 1012.2 |
| 20260508074001 | 48 | 57 | 1.0 | 3.0 | 0.00 | 0.00 | 0.00 | 62 | 1012.2 |
| 20260508073526 | 48 | 57 | 1.0 | 3.0 | 0.00 | 0.00 | 0.00 | 60 | 1012.2 |
| 20260508073101 | 49 | 36 | 1.0 | 3.0 | 0.00 | 0.00 | 0.00 | 61 | 1012.2 |
| 20260508072532 | 50 | 25 | 2.0 | 3.0 | 0.00 | 0.00 | 0.00 | 61 | 1012.1 |
| 20260508072002 | 50 | 48 | 0.0 | 2.0 | 0.00 | 0.00 | 0.00 | 59 | 1012.0 |
| 20260508071529 | 50 | 67 | 1.0 | 2.0 | 0.00 | 0.00 | 0.00 | 57 | 1011.9 |
| 20260508071002 | 50 | 69 | 1.0 | 3.0 | 0.00 | 0.00 | 0.00 | 57 | 1011.8 |
| 20260508070538 | 51 | 96 | 0.0 | 3.0 | 0.00 | 0.00 | 0.00 | 57 | 1011.7 |
| 20260508070018 | 51 | 113 | 0.0 | 3.0 | 0.00 | 0.00 | 0.00 | 57 | 1011.7 |
| 20260508065546 | 51 | 52 | 0.0 | 6.0 | 0.00 | 0.00 | 0.00 | 56 | 1011.5 |
| 20260508065100 | 51 | 39 | 2.0 | 6.0 | 0.00 | 0.00 | 0.00 | 57 | 1011.5 |
| 20260508065004 | 51 | 26 | 2.0 | 6.0 | 0.00 | 0.00 | 0.00 | 56 | 1011.5 |
| 20260508064538 | 51 | 42 | 2.0 | 6.0 | 0.00 | 0.00 | 0.00 | 56 | 1011.4 |
| 20260508064007 | 51 | 32 | 2.0 | 7.0 | 0.00 | 0.00 | 0.00 | 56 | 1011.3 |
| 20260508063540 | 51 | 63 | 2.0 | 6.0 | 0.00 | 0.00 | 0.00 | 56 | 1011.4 |
| 20260508063056 | 51 | 48 | 2.0 | 4.0 | 0.00 | 0.00 | 0.00 | 56 | 1011.3 |
| 20260508062526 | 51 | 26 | 2.0 | 4.0 | 0.00 | 0.00 | 0.00 | 56 | 1011.3 |
| 20260508062056 | 51 | 44 | 2.0 | 6.0 | 0.00 | 0.00 | 0.00 | 56 | 1011.2 |
| 20260508061534 | 52 | 33 | 3.0 | 6.0 | 0.00 | 0.00 | 0.00 | 56 | 1011.3 |
| 20260508061100 | 52 | 51 | 2.0 | 6.0 | 0.00 | 0.00 | 0.00 | 55 | 1011.2 |
| 20260508060518 | 52 | 52 | 3.0 | 5.0 | 0.00 | 0.00 | 0.00 | 55 | 1011.2 |
| 20260508060052 | 52 | 69 | 3.0 | 5.0 | 0.00 | 0.00 | 0.00 | 56 | 1011.2 |
| 20260508055526 | 52 | 41 | 4.0 | 6.0 | 0.00 | 0.00 | 0.00 | 55 | 1011.2 |
| 20260508055100 | 52 | 75 | 2.0 | 6.0 | 0.00 | 0.00 | 0.00 | 55 | 1011.2 |
| 20260508055002 | 52 | 88 | 2.0 | 6.0 | 0.00 | 0.00 | 0.00 | 55 | 1011.2 |
| 20260508054532 | 52 | 48 | 2.0 | 5.0 | 0.00 | 0.00 | 0.00 | 55 | 1011.2 |
| 20260508054101 | 53 | 57 | 3.0 | 7.0 | 0.00 | 0.00 | 0.00 | 55 | 1011.2 |
| 20260508054003 | 53 | 59 | 3.0 | 7.0 | 0.00 | 0.00 | 0.00 | 55 | 1011.2 |
| 20260508053532 | 53 | 43 | 3.0 | 8.0 | 0.00 | 0.00 | 0.00 | 55 | 1011.2 |
| 20260508053006 | 53 | 50 | 3.0 | 8.0 | 0.00 | 0.00 | 0.00 | 55 | 1011.2 |
| 20260508052540 | 53 | 42 | 5.0 | 9.0 | 0.00 | 0.00 | 0.00 | 54 | 1011.2 |
| 20260508052010 | 53 | 59 | 5.0 | 9.0 | 0.00 | 0.00 | 0.00 | 54 | 1011.1 |
| 20260508051542 | 53 | 40 | 5.0 | 9.0 | 0.00 | 0.00 | 0.00 | 55 | 1011.1 |
| 20260508051012 | 53 | 46 | 4.0 | 8.0 | 0.00 | 0.00 | 0.00 | 55 | 1011.0 |
| 20260508050540 | 53 | 47 | 4.0 | 8.0 | 0.00 | 0.00 | 0.00 | 55 | 1011.0 |
| 20260508050015 | 53 | 64 | 3.0 | 7.0 | 0.00 | 0.00 | 0.00 | 56 | 1010.8 |
| 20260508045545 | 53 | 52 | 3.0 | 8.0 | 0.00 | 0.00 | 0.00 | 56 | 1010.8 |
| 20260508045014 | 53 | 45 | 5.0 | 9.0 | 0.00 | 0.00 | 0.00 | 56 | 1010.7 |
| 20260508044550 | 53 | 29 | 5.0 | 9.0 | 0.00 | 0.00 | 0.00 | 58 | 1010.6 |
| 20260508044022 | 53 | 36 | 3.0 | 7.0 | 0.00 | 0.00 | 0.00 | 58 | 1010.7 |
| 20260508043538 | 53 | 48 | 2.0 | 7.0 | 0.00 | 0.00 | 0.00 | 58 | 1010.6 |
| 20260508043012 | 53 | 38 | 3.0 | 7.0 | 0.00 | 0.00 | 0.00 | 58 | 1010.6 |
| 20260508042546 | 53 | 50 | 3.0 | 7.0 | 0.00 | 0.00 | 0.00 | 59 | 1010.6 |
| 20260508042015 | 53 | 46 | 3.0 | 6.0 | 0.00 | 0.00 | 0.00 | 60 | 1010.5 |
| 20260508041550 | 53 | 54 | 3.0 | 6.0 | 0.00 | 0.00 | 0.00 | 61 | 1010.4 |
| 20260508041006 | 52 | 75 | 3.0 | 7.0 | 0.00 | 0.00 | 0.00 | 64 | 1010.3 |
| 20260508040538 | 51 | 57 | 3.0 | 7.0 | 0.00 | 0.00 | 0.00 | 67 | 1010.2 |
| 20260508040021 | 50 | 67 | 4.0 | 7.0 | 0.00 | 0.00 | 0.00 | 71 | 1010.1 |
| 20260508035540 | 49 | 73 | 3.0 | 5.0 | 0.00 | 0.00 | 0.00 | 77 | 1010.0 |
| 20260508035012 | 49 | 73 | 2.0 | 4.0 | 0.00 | 0.00 | 0.00 | 85 | 1009.9 |
| 20260508034546 | 49 | 56 | 1.0 | 4.0 | 0.00 | 0.00 | 0.00 | 87 | 1009.8 |
| 20260508034059 | 49 | 292 | 0.0 | 1.0 | 0.00 | 0.00 | 0.00 | 86 | 1009.8 |
| 20260508034003 | 49 | 292 | 0.0 | 1.0 | 0.00 | 0.00 | 0.00 | 86 | 1009.8 |
| 20260508033530 | 49 | 292 | 0.0 | 1.0 | 0.00 | 0.00 | 0.00 | 86 | 1009.8 |
| 20260508033009 | 49 | 292 | 0.0 | 2.0 | 0.00 | 0.00 | 0.00 | 86 | 1009.7 |
| 20260508032540 | 50 | 292 | 0.0 | 3.0 | 0.00 | 0.00 | 0.00 | 85 | 1009.8 |
| 20260508032010 | 50 | 292 | 0.0 | 3.0 | 0.00 | 0.00 | 0.00 | 85 | 1009.7 |
| 20260508031545 | 50 | 287 | 0.0 | 4.0 | 0.00 | 0.00 | 0.00 | 84 | 1009.6 |
| 20260508031013 | 51 | 302 | 2.0 | 4.0 | 0.00 | 0.00 | 0.00 | 84 | 1009.6 |
| 20260508030546 | 51 | 301 | 1.0 | 4.0 | 0.00 | 0.00 | 0.00 | 83 | 1009.4 |
| 20260508030013 | 51 | 298 | 1.0 | 3.0 | 0.00 | 0.00 | 0.00 | 83 | 1009.4 |
| 20260508025545 | 51 | 290 | 0.0 | 3.0 | 0.00 | 0.00 | 0.00 | 82 | 1009.4 |
| 20260508025013 | 51 | 294 | 1.0 | 4.0 | 0.00 | 0.00 | 0.00 | 82 | 1009.4 |
| 20260508024555 | 52 | 242 | 2.0 | 4.0 | 0.00 | 0.00 | 0.00 | 82 | 1009.4 |
| 20260508024017 | 52 | 298 | 0.0 | 4.0 | 0.00 | 0.00 | 0.00 | 81 | 1009.4 |
| 20260508023551 | 52 | 302 | 2.0 | 4.0 | 0.00 | 0.00 | 0.00 | 81 | 1009.4 |
| 20260508023019 | 52 | 288 | 1.0 | 5.0 | 0.00 | 0.00 | 0.00 | 81 | 1009.5 |
| 20260508022545 | 52 | 276 | 2.0 | 5.0 | 0.00 | 0.00 | 0.00 | 80 | 1009.4 |
| 20260508022018 | 53 | 332 | 0.0 | 5.0 | 0.00 | 0.00 | 0.00 | 80 | 1009.4 |
| 20260508021550 | 53 | 285 | 1.0 | 5.0 | 0.00 | 0.00 | 0.00 | 79 | 1009.2 |
| 20260508021009 | 53 | 11 | 0.0 | 2.0 | 0.00 | 0.00 | 0.00 | 78 | 1009.2 |
| 20260508020543 | 53 | 282 | 1.0 | 3.0 | 0.00 | 0.00 | 0.00 | 78 | 1009.2 |
| 20260508020013 | 53 | 8 | 0.0 | 4.0 | 0.00 | 0.00 | 0.00 | 78 | 1009.2 |
| 20260508015547 | 53 | 286 | 2.0 | 4.0 | 0.00 | 0.00 | 0.00 | 77 | 1009.1 |
| 20260508015024 | 54 | 304 | 1.0 | 5.0 | 0.00 | 0.00 | 0.00 | 77 | 1009.1 |
| 20260508014553 | 54 | 52 | 1.0 | 6.0 | 0.00 | 0.00 | 0.00 | 76 | 1009.0 |
| 20260508014025 | 54 | 290 | 2.0 | 6.0 | 0.00 | 0.00 | 0.00 | 76 | 1009.0 |
| 20260508013559 | 54 | 291 | 0.0 | 5.0 | 0.00 | 0.00 | 0.00 | 75 | 1009.0 |
| 20260508013505 | 54 | 324 | 0.0 | 5.0 | 0.00 | 0.00 | 0.00 | 75 | 1009.0 |
| 20260508013038 | 54 | 335 | 1.0 | 4.0 | 0.00 | 0.00 | 0.00 | 75 | 1008.9 |
| 20260508012511 | 54 | 310 | 0.0 | 3.0 | 0.00 | 0.00 | 0.00 | 74 | 1008.9 |
| 20260508012026 | 55 | 290 | 0.0 | 3.0 | 0.00 | 0.00 | 0.00 | 74 | 1008.8 |
| 20260508011600 | 55 | 306 | 0.0 | 3.0 | 0.00 | 0.00 | 0.00 | 73 | 1008.5 |
| 20260508011506 | 55 | 253 | 0.0 | 3.0 | 0.00 | 0.00 | 0.00 | 73 | 1008.5 |
| 20260508011035 | 55 | 298 | 0.0 | 3.0 | 0.00 | 0.00 | 0.00 | 73 | 1008.5 |
| 20260508010507 | 55 | 336 | 0.0 | 3.0 | 0.00 | 0.00 | 0.00 | 73 | 1008.5 |
| 20260508010042 | 55 | 350 | 0.0 | 0.0 | 0.00 | 0.00 | 0.00 | 72 | 1008.5 |
| 20260508005557 | 56 | 350 | 0.0 | 3.0 | 0.00 | 0.00 | 0.00 | 72 | 1008.5 |
| 20260508005039 | 56 | 321 | 0.0 | 3.0 | 0.00 | 0.00 | 0.00 | 71 | 1008.5 |
| 20260508004508 | 56 | 282 | 0.0 | 2.0 | 0.00 | 0.00 | 0.00 | 71 | 1008.5 |
| 20260508004041 | 56 | 357 | 0.0 | 2.0 | 0.00 | 0.00 | 0.00 | 70 | 1008.3 |
| 20260508003511 | 57 | 357 | 0.0 | 3.0 | 0.00 | 0.00 | 0.00 | 70 | 1008.2 |
| 20260508003025 | 57 | 308 | 1.0 | 5.0 | 0.00 | 0.00 | 0.00 | 69 | 1008.0 |
| 20260508002559 | 57 | 296 | 1.0 | 6.0 | 0.00 | 0.00 | 0.00 | 69 | 1008.0 |
| 20260508002502 | 57 | 296 | 1.0 | 6.0 | 0.00 | 0.00 | 0.00 | 69 | 1008.0 |
| 20260508002035 | 57 | 296 | 2.0 | 6.0 | 0.00 | 0.00 | 0.00 | 69 | 1008.0 |
| 20260508001505 | 58 | 283 | 2.0 | 5.0 | 0.00 | 0.00 | 0.00 | 68 | 1007.9 |
| 20260508001035 | 58 | 296 | 1.0 | 5.0 | 0.00 | 0.00 | 0.00 | 67 | 1007.7 |
| 20260508000551 | 58 | 269 | 1.0 | 7.0 | 0.00 | 0.00 | 0.00 | 67 | 1007.8 |
| 20260508000025 | 59 | 314 | 1.0 | 7.0 | 0.00 | 0.00 | 0.00 | 67 | 1007.7 |
| 20260507235559 | 59 | 299 | 3.0 | 7.0 | 0.00 | 0.00 | 0.00 | 66 | 1007.7 |
| 20260507235501 | 59 | 292 | 3.0 | 7.0 | 0.00 | 0.00 | 0.00 | 66 | 1007.7 |
| 20260507235033 | 59 | 326 | 3.0 | 7.0 | 0.00 | 0.00 | 0.00 | 65 | 1007.5 |
| 20260507234547 | 59 | 282 | 2.0 | 7.0 | 0.00 | 0.00 | 0.00 | 65 | 1007.5 |
| 20260507234013 | 59 | 202 | 2.0 | 5.0 | 0.00 | 0.00 | 0.00 | 65 | 1007.4 |
| 20260507233549 | 60 | 312 | 1.0 | 5.0 | 0.00 | 0.01 | 0.00 | 64 | 1007.2 |
| 20260507233023 | 60 | 300 | 1.0 | 6.0 | 0.00 | 0.01 | 0.00 | 64 | 1007.1 |
| 20260507232554 | 60 | 300 | 3.0 | 6.0 | 0.00 | 0.01 | 0.00 | 63 | 1007.2 |
| 20260507232010 | 61 | 329 | 1.0 | 7.0 | 0.00 | 0.01 | 0.00 | 62 | 1007.2 |
| 20260507231543 | 61 | 290 | 2.0 | 12.0 | 0.00 | 0.01 | 0.00 | 61 | 1007.1 |
| 20260507231013 | 62 | 281 | 2.0 | 12.0 | 0.00 | 0.01 | 0.00 | 60 | 1007.1 |
| 20260507230543 | 62 | 297 | 4.0 | 10.0 | 0.00 | 0.01 | 0.00 | 59 | 1007.0 |
| 20260507230021 | 63 | 295 | 4.0 | 10.0 | 0.00 | 0.01 | 0.00 | 59 | 1006.8 |
| 20260507225547 | 63 | 268 | 3.0 | 9.0 | 0.00 | 0.01 | 0.00 | 59 | 1006.8 |
| 20260507225057 | 63 | 281 | 1.0 | 7.0 | 0.00 | 0.01 | 0.00 | 61 | 1006.6 |
| 20260507224528 | 63 | 302 | 4.0 | 10.0 | 0.00 | 0.01 | 0.00 | 58 | 1006.6 |
| 20260507224059 | 63 | 294 | 3.0 | 9.0 | 0.00 | 0.01 | 0.00 | 57 | 1006.5 |
| 20260507224001 | 64 | 311 | 2.0 | 9.0 | 0.00 | 0.01 | 0.00 | 57 | 1006.6 |
| 20260507223538 | 64 | 8 | 1.0 | 14.0 | 0.00 | 0.01 | 0.00 | 57 | 1006.4 |
| 20260507223007 | 65 | 290 | 4.0 | 10.0 | 0.00 | 0.01 | 0.00 | 56 | 1006.5 |
| 20260507222518 | 65 | 322 | 4.0 | 10.0 | 0.00 | 0.01 | 0.00 | 54 | 1006.4 |
| 20260507222052 | 65 | 304 | 2.0 | 8.0 | 0.00 | 0.01 | 0.00 | 54 | 1006.3 |
| 20260507221526 | 65 | 288 | 3.0 | 7.0 | 0.00 | 0.01 | 0.00 | 54 | 1006.3 |
| 20260507221055 | 65 | 316 | 1.0 | 6.0 | 0.00 | 0.01 | 0.00 | 53 | 1006.3 |
| 20260507220530 | 65 | 31 | 0.0 | 13.0 | 0.00 | 0.01 | 0.00 | 56 | 1006.2 |
| 20260507220005 | 65 | 280 | 6.0 | 13.0 | 0.00 | 0.01 | 0.00 | 53 | 1006.2 |
| 20260507215531 | 65 | 299 | 3.0 | 10.0 | 0.00 | 0.01 | 0.00 | 55 | 1006.2 |
| 20260507215009 | 64 | 6 | 5.0 | 12.0 | 0.00 | 0.01 | 0.00 | 53 | 1006.2 |
| 20260507214539 | 64 | 225 | 3.0 | 12.0 | 0.00 | 0.01 | 0.00 | 53 | 1006.2 |
| 20260507214013 | 65 | 273 | 6.0 | 11.0 | 0.00 | 0.01 | 0.00 | 54 | 1006.1 |
| 20260507213548 | 65 | 328 | 3.0 | 10.0 | 0.00 | 0.01 | 0.00 | 55 | 1006.1 |
| 20260507213020 | 65 | 304 | 5.0 | 14.0 | 0.00 | 0.01 | 0.00 | 53 | 1006.2 |
| 20260507212554 | 65 | 288 | 6.0 | 14.0 | 0.00 | 0.01 | 0.00 | 53 | 1006.2 |
| 20260507212023 | 65 | 263 | 5.0 | 10.0 | 0.00 | 0.01 | 0.00 | 55 | 1006.2 |
| 20260507211601 | 66 | 351 | 4.0 | 9.0 | 0.00 | 0.01 | 0.00 | 52 | 1006.1 |
| 20260507211033 | 66 | 279 | 1.0 | 5.0 | 0.00 | 0.01 | 0.00 | 42 | 1006.1 |
| 20260507210558 | 65 | 189 | 1.0 | 5.0 | 0.00 | 0.01 | 0.00 | 42 | 1006.1 |
| 20260507210502 | 65 | 184 | 0.0 | 5.0 | 0.00 | 0.01 | 0.00 | 45 | 1006.1 |
| 20260507210035 | 65 | 173 | 2.0 | 5.0 | 0.00 | 0.01 | 0.00 | 46 | 1006.2 |
| 20260507205551 | 64 | 82 | 0.0 | 0.0 | 0.00 | 0.01 | 0.00 | 46 | 1006.3 |
| 20260507205018 | 64 | 81 | 0.0 | 1.0 | 0.00 | 0.01 | 0.00 | 45 | 1006.2 |
| 20260507204555 | 64 | 105 | 0.0 | 0.0 | 0.00 | 0.01 | 0.00 | 49 | 1006.4 |
| 20260507204019 | 64 | 105 | 0.0 | 2.0 | 0.00 | 0.01 | 0.00 | 45 | 1006.4 |
| 20260507203552 | 64 | 105 | 0.0 | 5.0 | 0.00 | 0.01 | 0.00 | 44 | 1006.3 |